Regional Weather Roundup
Issued by NWS

Home | Current Version | Previous Version | Text Only | Print | Product List | Glossary Off
Versions: 1 2 3 4 5 6 7 8 9 10 11 12 13 14 15 16 17 18 19 20 21 22 23 24 25 26 27 28 29 30 31 32 33 34 35 36 37 38 39 40 41 42 43 44 45 46 47 48 49 50

000
ASUS43 KMPX 212210
RWRMN
WEATHER ROUNDUP FOR MINNESOTA
NATIONAL WEATHER SERVICE TWIN CITIES/CHANHASSEN MN
500 PM CDT FRI JUL 21 2017


NOTE: "FAIR" INDICATES FEW OR NO CLOUDS BELOW 12,000 FEET WITH NO
SIGNIFICANT WEATHER AND/OR OBSTRUCTIONS TO VISIBILITY. N/A MEANS
CURRENT SKY AND/OR WEATHER CONDITIONS ARE NOT AVAILABLE.

MNZ060>063-068>070-212300-
   Twin Cities Metro

CITY           SKY/WX    TMP DP  RH WIND       PRES   REMARKS
TWIN CITIES    PTSUNNY   82  67  60 S10       29.85R
ST PAUL        MOSUNNY   82  71  69 S8        29.85S
CRYSTAL        MOSUNNY   83  67  58 SW14      29.83S
BLAINE         PTSUNNY   82  70  65 S8        29.85R
LAKEVILLE      MOSUNNY   81  70  69 S8        29.86S
EDEN PRAIRIE   MOSUNNY   82  69  64 S10       29.84S
SOUTH ST PAUL  MOSUNNY   82  69  63 S8        29.85S
LAKE ELMO      FAIR      81  70  69 S9        29.87S
$$
MNZ001>005-007-008-013>017-022>024-027-028-212300-
   Northwest Minnesota

CITY           SKY/WX    TMP DP  RH WIND       PRES   REMARKS
BEMIDJI        CLOUDY    81  65  59 SE13      29.77F THUNDER
HALLOCK        PTSUNNY   79  68  69 E12G20    29.75F
ROSEAU         LGT RAIN  72  66  83 NE13      29.82S
WARROAD        PTSUNNY   70  64  83 NE16      29.83R
THIEF RVR FALL CLOUDY    77  69  76 CALM      29.78F
CROOKSTON      RAIN      72  70  94 W14       29.79F
FOSSTON        TSTM      64  63  94 W9        29.83R
DETROIT LAKES  CLOUDY    82  73  74 S10       29.78F
MOORHEAD       PTSUNNY   90  73  58 S10       29.76S HX  98
PARK RAPIDS    MOSUNNY   87  71  58 S13       29.77F HX  93
MAHNOMEN       CLOUDY    83  74  73 W13       29.74F THUNDER HX  90
$$
MNZ006-009>011-018-025>026-212300-
   North Central Minnesota

CITY           SKY/WX    TMP DP  RH WIND       PRES   REMARKS
BAUDETTE       CLOUDY    76  63  64 E14       29.81F
FLAG ISLAND    CLOUDY    70  61  73 NE15G22   29.84F
INTL FALLS     CLOUDY    73  61  65 E9        29.83S
WASKISH        CLOUDY    66  64  94 E8G16     29.80F
BIG FORK       TSTM      64  61  88 N9G23     29.93R
LONGVILLE      MOSUNNY   81  72  74 SE12      29.79F
GRAND RAPIDS   SUNNY     83  64  52 S16       29.81F
CRANE LAKE     CLOUDY    75  64  69 NE3       29.85F
ORR            LGT RAIN  72  54  53 S9G26     29.84R
COOK           MOSUNNY   79  64  61 CALM      29.86R
WALKER         FAIR      84  69  59 S12       29.78F
$$
MNZ012-019>021-037-212300-
   Northeast Minnesota

CITY           SKY/WX    TMP DP  RH WIND       PRES   REMARKS
DULUTH         MOSUNNY   77  67  71 E10       29.85F
ELY            SUNNY     82  55  39 S7        29.86F
HIBBING        CLOUDY    80  63  55 S8        29.82F
EVELETH        SUNNY     82  57  41 SE12      29.85F
DULUTH HARBOR  SUNNY     66  61  82 E12       29.86F
TWO HARBORS    SUNNY     79  63  57 NE10G16   29.85S
SILVER BAY     SUNNY     73  55  53 NE7       29.87F
GRAND MARAIS     N/A     66  53  63 E7        29.88F
G MARAIS ARPRT MOSUNNY   72  55  56 SE5       29.94F
$$
MNZ029>031-032-039>041-046>048-054>057-064-212300-
   West Central Minnesota

CITY           SKY/WX    TMP DP  RH WIND       PRES   REMARKS
FERGUS FALLS   SUNNY     84  72  65 S8        29.77F
WHEATON        SUNNY     86  73  66 SE8       29.78S HX  93
MORRIS         SUNNY     88  72  58 SE14      29.78F HX  94
ALEXANDRIA     MOSUNNY   83  71  67 S14       29.83S
ELBOW LAKE     PTSUNNY   84  75  73 S12       29.80S HAZE    HX  92
WADENA         PTSUNNY   84  72  65 S12       29.80F
GLENWOOD       SUNNY     84  72  65 S12G17    29.83F
APPLETON       SUNNY     88  72  58 S7        29.78S HX  94
BENSON         SUNNY     88  73  62 SW12G18   29.80F HX  96
ORTONVILLE     MOSUNNY   88  73  62 SE10      29.78S HX  96
MADISON        SUNNY     90  73  58 S9        29.78F HX  98
WILLMAR        PTSUNNY   82  73  74 S8G17     29.83F
$$
MNZ033>034-036-042>043-049>051-058-059-212300-
   Central Minnesota

CITY           SKY/WX    TMP DP  RH WIND       PRES   REMARKS
ST CLOUD       MOSUNNY   81  72  74 S13       29.83F
SAUK CENTRE    FAIR      83  72  69 S15       29.82S
PAYNESVILLE    MOSUNNY   81  72  73 S12       29.83F
AITKIN         PTSUNNY   81  70  69 S10       29.81F
PINE RIVER     PTSUNNY   82  72  69 S13G18    29.82F
BRAINERD       MOSUNNY   83  70  64 S10       29.81F
STAPLES        PTSUNNY   82  68  61 S10       29.81F
LONG PRAIRIE   PTSUNNY   81  72  74 SE12      29.83S
LITTLE FALLS   MOSUNNY   82  68  61 S10       29.82F
LITCHFIELD     SUNNY     82  73  74 S6        29.83F
BUFFALO        PTSUNNY   80  69  68 S8        29.86F
MAPLE LAKE     PTSUNNY   83  73  73 S5        29.85F
HUTCHINSON     PTSUNNY   82  73  74 S7        29.86S
$$
MNZ037-044-045-052-053-212300-
   East Central Minnesota

CITY           SKY/WX    TMP DP  RH WIND       PRES   REMARKS
PRINCETON      MOSUNNY   84  72  65 SW13      29.84F
MORA           PTSUNNY   77  68  73 S8        29.86S
CAMBRIDGE      MOSUNNY   84  70  61 S6        29.83F
RUSH CITY      CLOUDY    78  70  77 S6        29.86S
MOOSE LAKE     MOSUNNY   81  66  61 S6        29.82F
HINCKLEY       MOCLDY    81  70  69 S9        29.84F
CLOQUET        MOSUNNY   75  57  53 E8        29.85F
MCGREGOR       MOSUNNY   82  64  54 SE12G18   29.83F
$$
MNZ071>073-080-081-089-090-097-098-212300-
   Southwest Minnesota

CITY           SKY/WX    TMP DP  RH WIND       PRES   REMARKS
MONTEVIDEO     PTSUNNY   88  73  62 S13G21    29.80S HX  96
GRANITE FALLS  MOSUNNY   86  73  66 S15       29.82S HX  93
CANBY          MOSUNNY   88  72  58 CALM      29.79F HX  94
MARSHALL       MOSUNNY   85  73  67 S14       29.81F HX  91
REDWOOD FALLS  MOSUNNY   83  71  67 S20       29.82F
OLIVIA         PTSUNNY   79  70  73 S13G20    29.83S
PIPESTONE      SUNNY     82  72  69 S10G16    29.84F
WINDOM         SUNNY     81  70  69 SE12      29.85F
WORTHINGTON    PTSUNNY   81  73  76 SE10      29.86F
JACKSON        CLOUDY    79  68  69 CALM      29.87F
SLAYTON        MOSUNNY   81  71  71 SE14      29.86F
$$
MNZ065>067-074>077-082>085-091>093-212300-
   South Central Minnesota

CITY           SKY/WX    TMP DP  RH WIND       PRES   REMARKS
MANKATO        MOSUNNY   79  69  71 SE12      29.86F
NEW ULM        SUNNY     81  70  69 S15       29.84F
ST JAMES       MOSUNNY   79  70  73 SE13G18   29.86F
FAIRMONT       MOSUNNY   77  69  76 SE10      29.86F
GLENCOE        PTSUNNY   83  75  75 S5        29.84F HX  91
FARIBAULT      SUNNY     81  70  69 S13G18    29.87S
OWATONNA       SUNNY     79  66  65 S15       29.88F
WASECA         MOSUNNY   77  68  73 SE8       29.89F
ALBERT LEA     PTSUNNY   75  68  78 SE7       29.88F
$$
MNZ078>079-086>088-094>096-212300-
   Southeast Minnesota

CITY           SKY/WX    TMP DP  RH WIND       PRES   REMARKS
ROCHESTER      PTSUNNY   74  69  85 SE9       29.90S
RED WING       MOSUNNY   81  64  57 S10       29.85S
STANTON        MOSUNNY   81  68  64 S14G20    29.85S
DODGE CENTER   MOSUNNY   75  66  73 SE14G20   29.90S
WINONA         CLOUDY    73  70  88 S5        29.88F
AUSTIN         PTSUNNY   73  66  78 SE7       29.89F
PRESTON        CLOUDY    70  65  86 SE8       29.91F
$$
ABBREVIATIONS USED IN REMARKS
   TC - TEMPERATURES IN CELSIUS
  WCI - WIND CHILL INDEX
   HX - HEAT INDEX
  VSB - VISIBILITY
$$




USA.gov is the U.S. government's official web portal to all federal, state and local government web resources and services.